STARLINK-2337 (47880 NORAD) Tracking and Keplerian Element Data

This shows tracking and keplerian element data for the satellite.

Feedback or suggestion? Click here.




ElementValue
Catalog47880
NameSTARLINK-2337
Epoch Orbit195
Epoch Day173.91668981
Epoch Year2021
RAAN86.4581
Inclination53.0526
Eccentricity0.0001427
Argument of Perigee72.2174
Mean Anonmoly69.7861
Mean Motion15.06394522
Decay Rate2E-08
L11 47880U 21021W 21173.91668981 .00000002 00000-0 19049-4 0 9994
L22 47880 53.0526 86.4581 0001427 72.2174 69.7861 15.06394522 1958

Live tracking and technical data element details for STARLINK-2337 (NORAD 47880). STARLINK-2337 can be tracked NOW for your location showing map with azimuth and elevation plus other details from your city location.

Track the satellite on the map from your city or location and see movement details for azimuth, elevation, latitude, longitude, range, height, and movement on the map or in text.







IsCatalogInMostPopularTable: catalog: 47880, numindb: 43
Update: records affected: 1



GetName: 47880 STARLINK-2337

Hit Count: updated at: Thu, 24 Jun 2021 02:53:43 GMT